Regional Weather Roundup
Issued by NWS

Home | Current Version | Previous Version | Text Only | Print | Product List | Glossary On
Versions: 1 2 3 4 5 6 7 8 9 10 11 12 13 14 15 16 17 18 19 20 21 22 23 24 25 26 27 28 29 30 31 32 33 34 35 36 37 38 39 40 41 42 43 44 45 46 47 48 49 50
000
ASUS43 KMPX 280410
RWRMN
WEATHER ROUNDUP FOR MINNESOTA
NATIONAL WEATHER SERVICE TWIN CITIES/CHANHASSEN MN
1100 PM CDT FRI MAY 27 2016


NOTE: "FAIR" INDICATES FEW OR NO CLOUDS BELOW 12,000 FEET WITH NO
SIGNIFICANT WEATHER AND/OR OBSTRUCTIONS TO VISIBILITY. N/A MEANS
CURRENT SKY AND/OR WEATHER CONDITIONS ARE NOT AVAILABLE.

MNZ060>063-068>070-280500-
   Twin Cities Metro

CITY           SKY/WX    TMP DP  RH WIND       PRES   REMARKS
TWIN CITIES    CLOUDY    64  60  87 N3        29.75S
ST PAUL        CLOUDY    64  61  90 CALM      29.75S
CRYSTAL        CLOUDY    63  60  90 CALM      29.75R
BLAINE         CLOUDY    64  63  94 N5        29.76R
EDEN PRAIRIE   MOCLDY    62  58  86 CALM      29.75R
SOUTH ST PAUL  CLOUDY    64  62  93 CALM      29.75S
LAKE ELMO      MOCLDY    63  63 100 CALM      29.76S FOG
$$
MNZ001>005-007-008-013>017-022>024-027-028-280500-
   Northwest Minnesota

CITY           SKY/WX    TMP DP  RH WIND       PRES   REMARKS
BEMIDJI        PTCLDY    54  52  93 NE3       29.82F
HALLOCK        CLOUDY    63  59  88 CALM      29.81S
ROSEAU         CLOUDY    63  55  77 SE5       29.84S
WARROAD        MOCLDY    61  57  88 CALM      29.85F
THIEF RVR FALL CLOUDY    61  54  77 E3        29.83S
CROOKSTON      CLOUDY    61  61 100 SE7       29.80F
FOSSTON        PTCLDY    57  55  94 CALM      29.82S
DETROIT LAKES  CLOUDY    61  55  82 CALM      29.82R
MOORHEAD       CLOUDY    63  59  88 E6        29.80S
PARK RAPIDS    CLOUDY    60  54  80 N3        29.81R
MAHNOMEN       FAIR      61  55  79 CALM      29.82R
$$
MNZ006-009>011-018-025>026-280500-
   North Central Minnesota

CITY           SKY/WX    TMP DP  RH WIND       PRES   REMARKS
BAUDETTE       PTCLDY    57  52  83 E6        29.85F
FLAG ISLAND    PTCLDY    63  55  77 E3        29.85F
INTL FALLS     CLOUDY    61  54  77 NE5       29.86S
WASKISH        CLOUDY    57  55  94 NE5       29.85S
BIG FORK       CLOUDY    57  55  94 NE5       29.85S
LONGVILLE        N/A     52  52 100 CALM      29.82S FOG
GRAND RAPIDS   CLOUDY    58  56  93 NW5       29.84R
CRANE LAKE     CLOUDY    55  54  94 CALM      29.88S
ORR            CLOUDY    57  52  82 CALM      29.83F
COOK           CLOUDY    55  54  94 CALM      29.85S
WALKER         FAIR      57  55  92 NE5       29.81S
$$
MNZ012-019>021-037-280500-
   Northeast Minnesota

CITY           SKY/WX    TMP DP  RH WIND       PRES   REMARKS
DULUTH         LGT RAIN  53  51  93 E13       29.81S FOG
ELY            CLOUDY    55  52  88 NE5       29.85S
HIBBING        CLOUDY    57  53  86 N5        29.82F
EVELETH        PTCLDY    57  52  82 NE5       29.83F
DULUTH HARBOR  CLOUDY    46  45  93 NE13      29.83S
TWO HARBORS    DRIZZLE   55  52  88 NE9       29.80F
SILVER BAY     HVY RAIN  54  52  94 N7        29.81F
GRAND MARAIS     N/A     48  46  93 E8        29.86F
G MARAIS ARPRT LGT RAIN  54  48  82 NE10      29.88F
$$
MNZ029>031-032-039>041-046>048-054>057-064-280500-
   West Central Minnesota

CITY           SKY/WX    TMP DP  RH WIND       PRES   REMARKS
FERGUS FALLS   CLOUDY    63  55  77 E5        29.77R
WHEATON        MOCLDY    64  61  88 E10       29.80R
MORRIS         PTCLDY    61  57  88 SE6       29.78R
ALEXANDRIA     CLOUDY    59  56  89 E7        29.80S
ELBOW LAKE     MOCLDY    59  57  93 E5        29.80R
WADENA         CLOUDY    57  54  88 CALM      29.80S
GLENWOOD       CLOUDY    61  57  88 E8        29.80R
APPLETON       CLOUDY    64  57  77 E7        29.78R
BENSON         CLOUDY    63  55  77 SE7       29.78S
ORTONVILLE     CLOUDY    63  57  82 E8        29.78R
MADISON        MOCLDY    64  57  77 E10       29.77R
WILLMAR        CLOUDY    63  59  88 NE6       29.80R
$$
MNZ033>034-036-042>043-049>051-058-059-280500-
   Central Minnesota

CITY           SKY/WX    TMP DP  RH WIND       PRES   REMARKS
ST CLOUD       CLOUDY    58  57  97 E3        29.78R
SAUK CENTRE    MOCLDY    58  56  93 NE3       29.79S
PAYNESVILLE    CLOUDY    60  59  96 NE6       29.79S
AITKIN         CLOUDY    59  54  82 E3        29.79F
PINE RIVER     MOCLDY    57  54  88 N5        29.84S
BRAINERD       MOCLDY    58  56  93 NE3       29.80R
STAPLES        PTCLDY    55  55 100 CALM      29.80S
LONG PRAIRIE   MOCLDY    57  55  94 N8        29.79F
LITTLE FALLS   CLOUDY    59  54  82 E3        29.79F
LITCHFIELD     CLOUDY    63  61  94 CALM      29.79R
BUFFALO        CLOUDY    60  58  91 N5        29.79R
MAPLE LAKE     CLOUDY    60  59  97 N3        29.79R FOG
HUTCHINSON     CLOUDY    62  61  96 CALM      29.79R
$$
MNZ037-044-045-052-053-280500-
   East Central Minnesota

CITY           SKY/WX    TMP DP  RH WIND       PRES   REMARKS
PRINCETON        N/A     59  57  94 N5        29.78S
MORA           CLOUDY    54  50  87 CALM      29.79S
CAMBRIDGE      CLOUDY    61  52  72 N3        29.75S
RUSH CITY      CLOUDY    58  56  94 NE3       29.77R
MOOSE LAKE     CLOUDY    52  50  93 NE8       29.77S
HINCKLEY       CLOUDY    55  55 100 CALM      29.78S
CLOQUET        CLOUDY    52  52 100 E6G16     29.80S
MCGREGOR       CLOUDY    55  52  88 E6        29.81S
$$
MNZ071>073-080-081-089-090-097-098-280500-
   Southwest Minnesota

CITY           SKY/WX    TMP DP  RH WIND       PRES   REMARKS
MONTEVIDEO     CLOUDY    63  59  88 E10       29.79R
GRANITE FALLS  CLOUDY    64  61  90 NE6       29.77S
CANBY          MOCLDY    65  60  85 W5        29.77S
MARSHALL       CLOUDY    66  59  78 E5        29.76R
REDWOOD FALLS  CLOUDY    63  60  90 NE5       29.75S
OLIVIA         CLOUDY    61  57  88 E3        29.76F
PIPESTONE      PTCLDY    64  57  77 CALM      29.77R
WINDOM         MOCLDY    64  59  82 E6        29.77R
WORTHINGTON    CLOUDY    65  60  84 NE7       29.77R
JACKSON        MOCLDY    64  59  82 E6        29.77R
TRACY          PTCLDY    63  59  85 SE5       29.75F
SLAYTON        CLOUDY    65  58  80 E5        29.77S
$$
MNZ065>067-074>077-082>085-091>093-280500-
   South Central Minnesota

CITY           SKY/WX    TMP DP  RH WIND       PRES   REMARKS
MANKATO        CLOUDY    64  59  82 E6        29.76S
NEW ULM        MOCLDY    63  63 100 E10       29.75F
ST JAMES       CLOUDY    61  57  88 NE3       29.77S
FAIRMONT       CLOUDY    66  61  82 E6        29.76R
GLENCOE        MOCLDY    62  61  99 CALM      29.77R
FARIBAULT      CLOUDY    61  59  94 CALM      29.78R
OWATONNA       PTCLDY    63  61  94 CALM      29.78R
WASECA         MOCLDY    63  59  88 E5        29.79R
ALBERT LEA     PTCLDY    64  63  94 CALM      29.76F
$$
MNZ078>079-086>088-094>096-280500-
   Southeast Minnesota

CITY           SKY/WX    TMP DP  RH WIND       PRES   REMARKS
ROCHESTER      CLOUDY    63  63 100 CALM      29.77S
RED WING       CLOUDY    63  61  94 CALM      29.75R FOG
STANTON        CLOUDY    60  58  92 CALM      29.76R FOG
DODGE CENTER   CLOUDY    61  59  94 CALM      29.77F FOG
WINONA         MOCLDY    70  66  88 CALM      29.75S
AUSTIN         CLOUDY    63  61  94 CALM      29.76F
PRESTON        PTCLDY    63  61  94 N3        29.77F
$$
ABBREVIATIONS USED IN REMARKS
   TC - TEMPERATURES IN CELSIUS
  WCI - WIND CHILL INDEX
   HX - HEAT INDEX
  VSB - VISIBILITY
$$




USA.gov is the U.S. government's official web portal to all federal, state and local government web resources and services.